P/2022 C3 ( PanSTARRS )

Japanese version
Home page
Updated on September 11, 2022

---------------------------------------------------------------------

* Profile

Discovery Date February 9, 2022
Magnitude 20.9 mag
Discoverer Pan-STARRS 2 telescope (Haleakala)

* Pictures

* Orbital Elements

Epoch 2022 Aug. 9.0 TT = JDT 2459800.5
T 2022 July 1.25568 TT                                  Rudenko
q   4.3745125            (2000.0)            P               Q
n   0.03287984     Peri.   93.94184     -0.58552423     +0.79751686
a   9.6497550      Node   139.05850     -0.80353846     -0.54727144
e   0.5466711      Incl.   12.81591     -0.10717888     -0.25389138
P  30.0
From 117 observations 2022 Jan. 19-July 29, mean residual 0".3.

* Magnitudes Graph

        m1 = 4.0 + 5 log d + 20.0 log r

---------------------------------------------------------------------

The orbital elements are published on M.P.E.C. 2022-O116.
The magnitudes graphs are made with Comet for Windows.

---------------------------------------------------------------------

Copyright(C) Seiichi Yoshida (comet@aerith.net). All rights reserved.